Location: ?ejeti?ky
(50.4060°N, 14.9016°E)
Time: 08:40:07
(UTC+00:00)

N. Korean satellite - Pass Details

Date: 06 December 2021
Orbit: 446 x 491 km, 97.3° (Epoch: 18 January)

Event Time Altitude Azimuth Distance (km) Brightness Sun altitude
Rises 15:58:13 0° 191° (S) 2,522 10.7 -9.2°
Reaches altitude 10° 16:00:28 10° 203° (SSW) 1,640 10.0 -9.5°
Maximum altitude 16:03:33 28° 264° (W) 913 8.8 -10.0°
Drops below altitude 10° 16:06:37 10° 326° (NW) 1,628 9.4 -10.4°
Sets 16:08:52 0° 338° (NNW) 2,500 10.2 -10.8°
